| time (UTC) | temp F | wind direction | speed MPH | gust MPH | rain 1hr in | rain 24hr in | rain mn in | humidity % | barometer mb |
| 20260507025516 | 66 | 245 | 1.0 | 5.0 | 0.00 | 0.00 | 0.00 | 66 | 1017.1 |
| 20260507025016 | 67 | 245 | 1.0 | 6.0 | 0.00 | 0.00 | 0.00 | 65 | 1017.1 |
| 20260507024613 | 67 | 245 | 1.0 | 6.0 | 0.00 | 0.00 | 0.00 | 64 | 1017.0 |
| 20260507024018 | 67 | 245 | 0.0 | 5.0 | 0.00 | 0.00 | 0.00 | 64 | 1017.1 |
| 20260507023531 | 68 | 245 | 1.0 | 5.0 | 0.00 | 0.00 | 0.00 | 63 | 1016.8 |
| 20260507023109 | 68 | 245 | 1.0 | 5.0 | 0.00 | 0.00 | 0.00 | 62 | 1016.7 |
| 20260507022513 | 68 | 245 | 1.0 | 6.0 | 0.00 | 0.00 | 0.00 | 62 | 1016.8 |
| 20260507022019 | 69 | 245 | 2.0 | 6.0 | 0.00 | 0.00 | 0.00 | 61 | 1016.9 |
| 20260507021601 | 69 | 244 | 1.0 | 7.0 | 0.00 | 0.00 | 0.00 | 60 | 1017.0 |
| 20260507021014 | 70 | 242 | 1.0 | 8.0 | 0.00 | 0.00 | 0.00 | 59 | 1016.8 |
| 20260507020516 | 70 | 240 | 2.0 | 8.0 | 0.00 | 0.00 | 0.00 | 60 | 1016.8 |
| 20260507020114 | 70 | 245 | 3.0 | 10.0 | 0.00 | 0.00 | 0.00 | 59 | 1017.0 |
| 20260507015514 | 71 | 239 | 3.0 | 10.0 | 0.00 | 0.00 | 0.00 | 58 | 1016.9 |
| 20260507015016 | 71 | 264 | 2.0 | 8.0 | 0.00 | 0.00 | 0.00 | 58 | 1016.9 |
| 20260507014610 | 72 | 263 | 2.0 | 9.0 | 0.00 | 0.00 | 0.00 | 57 | 1016.8 |
| 20260507014024 | 72 | 268 | 3.0 | 9.0 | 0.00 | 0.00 | 0.00 | 57 | 1016.8 |
| 20260507013523 | 72 | 247 | 2.0 | 8.0 | 0.00 | 0.00 | 0.00 | 56 | 1016.9 |
| 20260507013109 | 73 | 244 | 5.0 | 9.0 | 0.00 | 0.00 | 0.00 | 55 | 1016.8 |
| 20260507012522 | 73 | 255 | 4.0 | 9.0 | 0.00 | 0.00 | 0.00 | 55 | 1016.7 |
| 20260507012024 | 73 | 253 | 3.0 | 9.0 | 0.00 | 0.00 | 0.00 | 54 | 1016.8 |
| 20260507011612 | 73 | 263 | 4.0 | 11.0 | 0.00 | 0.00 | 0.00 | 54 | 1016.6 |
| 20260507011020 | 74 | 257 | 3.0 | 11.0 | 0.00 | 0.00 | 0.00 | 54 | 1016.5 |
| 20260507010520 | 74 | 249 | 3.0 | 10.0 | 0.00 | 0.00 | 0.00 | 53 | 1016.6 |
| 20260507010115 | 74 | 257 | 3.0 | 11.0 | 0.00 | 0.00 | 0.00 | 53 | 1016.6 |
| 20260507005518 | 74 | 238 | 3.0 | 11.0 | 0.00 | 0.00 | 0.00 | 53 | 1016.7 |
| 20260507005017 | 74 | 280 | 4.0 | 9.0 | 0.00 | 0.00 | 0.00 | 53 | 1016.8 |
| 20260507004557 | 74 | 205 | 3.0 | 9.0 | 0.00 | 0.00 | 0.00 | 53 | 1016.8 |
| 20260507004018 | 74 | 284 | 2.0 | 10.0 | 0.00 | 0.00 | 0.00 | 53 | 1016.7 |
| 20260507003522 | 74 | 292 | 5.0 | 12.0 | 0.00 | 0.00 | 0.00 | 52 | 1016.8 |
| 20260507003306 | 74 | 223 | 6.0 | 12.0 | 0.00 | 0.00 | 0.00 | 51 | 1016.7 |
| 20260507002518 | 74 | 263 | 5.0 | 13.0 | 0.00 | 0.00 | 0.00 | 51 | 1016.8 |
| 20260507002017 | 75 | 265 | 5.0 | 13.0 | 0.00 | 0.00 | 0.00 | 51 | 1016.8 |
| 20260507001609 | 75 | 244 | 6.0 | 11.0 | 0.00 | 0.00 | 0.00 | 51 | 1016.9 |
| 20260507001020 | 75 | 243 | 6.0 | 13.0 | 0.00 | 0.00 | 0.00 | 50 | 1016.8 |
| 20260507000518 | 75 | 230 | 5.0 | 11.0 | 0.00 | 0.00 | 0.00 | 51 | 1016.8 |
| 20260507000111 | 75 | 241 | 5.0 | 11.0 | 0.00 | 0.00 | 0.00 | 51 | 1016.8 |
| 20260506235518 | 75 | 260 | 5.0 | 14.0 | 0.00 | 0.00 | 0.00 | 51 | 1016.8 |
| 20260506235018 | 75 | 223 | 5.0 | 14.0 | 0.00 | 0.00 | 0.00 | 51 | 1016.7 |
| 20260506234621 | 75 | 271 | 3.0 | 13.0 | 0.00 | 0.00 | 0.00 | 51 | 1016.7 |
| 20260506234021 | 75 | 257 | 6.0 | 13.0 | 0.00 | 0.00 | 0.00 | 51 | 1016.6 |
| 20260506233521 | 76 | 250 | 7.0 | 12.0 | 0.00 | 0.00 | 0.00 | 51 | 1016.6 |
| 20260506233110 | 76 | 232 | 5.0 | 12.0 | 0.00 | 0.00 | 0.00 | 51 | 1016.6 |
| 20260506232520 | 76 | 226 | 5.0 | 12.0 | 0.00 | 0.00 | 0.00 | 52 | 1016.6 |
| 20260506232019 | 76 | 244 | 6.0 | 16.0 | 0.00 | 0.00 | 0.00 | 52 | 1016.7 |
| 20260506231617 | 76 | 245 | 6.0 | 16.0 | 0.00 | 0.00 | 0.00 | 52 | 1016.7 |
| 20260506231020 | 76 | 251 | 6.0 | 15.0 | 0.00 | 0.00 | 0.00 | 51 | 1016.8 |
| 20260506230516 | 76 | 245 | 5.0 | 17.0 | 0.00 | 0.00 | 0.00 | 50 | 1016.8 |
| 20260506230307 | 76 | 229 | 6.0 | 17.0 | 0.00 | 0.00 | 0.00 | 50 | 1016.9 |
| 20260506225518 | 76 | 195 | 6.0 | 15.0 | 0.00 | 0.00 | 0.00 | 51 | 1016.9 |
| 20260506225019 | 76 | 270 | 6.0 | 14.0 | 0.00 | 0.00 | 0.00 | 50 | 1017.0 |
| 20260506224610 | 76 | 247 | 5.0 | 17.0 | 0.00 | 0.00 | 0.00 | 50 | 1017.1 |
| 20260506224032 | 76 | 245 | 7.0 | 15.0 | 0.00 | 0.00 | 0.00 | 49 | 1017.2 |
| 20260506223515 | 77 | 253 | 5.0 | 16.0 | 0.00 | 0.00 | 0.00 | 49 | 1017.3 |
| 20260506223044 | 77 | 239 | 7.0 | 16.0 | 0.00 | 0.00 | 0.00 | 49 | 1017.4 |
| 20260506222516 | 77 | 256 | 6.0 | 13.0 | 0.00 | 0.00 | 0.00 | 49 | 1017.5 |
| 20260506222016 | 77 | 232 | 5.0 | 12.0 | 0.00 | 0.00 | 0.00 | 49 | 1017.5 |
| 20260506221547 | 78 | 277 | 5.0 | 12.0 | 0.00 | 0.00 | 0.00 | 49 | 1017.7 |
| 20260506221016 | 78 | 236 | 5.0 | 13.0 | 0.00 | 0.00 | 0.00 | 50 | 1017.6 |
| 20260506220516 | 78 | 215 | 4.0 | 13.0 | 0.00 | 0.00 | 0.00 | 50 | 1017.9 |
| 20260506220049 | 78 | 239 | 3.0 | 11.0 | 0.00 | 0.00 | 0.00 | 50 | 1017.8 |
| 20260506215515 | 77 | 253 | 4.0 | 13.0 | 0.00 | 0.00 | 0.00 | 51 | 1017.8 |
| 20260506215015 | 77 | 204 | 5.0 | 13.0 | 0.00 | 0.00 | 0.00 | 51 | 1017.9 |
| 20260506214540 | 77 | 232 | 3.0 | 14.0 | 0.00 | 0.00 | 0.00 | 51 | 1017.9 |
| 20260506214016 | 77 | 251 | 5.0 | 14.0 | 0.00 | 0.00 | 0.00 | 51 | 1017.9 |
| 20260506213516 | 77 | 244 | 5.0 | 14.0 | 0.00 | 0.00 | 0.00 | 50 | 1018.0 |
| 20260506213037 | 77 | 245 | 5.0 | 14.0 | 0.00 | 0.00 | 0.00 | 51 | 1017.8 |
| 20260506212513 | 77 | 230 | 4.0 | 11.0 | 0.00 | 0.00 | 0.00 | 52 | 1017.9 |
| 20260506212014 | 77 | 236 | 4.0 | 15.0 | 0.00 | 0.00 | 0.00 | 53 | 1018.2 |
| 20260506211551 | 76 | 225 | 5.0 | 15.0 | 0.00 | 0.00 | 0.00 | 52 | 1018.2 |
| 20260506211017 | 76 | 238 | 4.0 | 12.0 | 0.00 | 0.00 | 0.00 | 53 | 1018.2 |
| 20260506210514 | 76 | 234 | 5.0 | 14.0 | 0.00 | 0.00 | 0.00 | 53 | 1018.2 |
| 20260506210044 | 76 | 240 | 5.0 | 14.0 | 0.00 | 0.00 | 0.00 | 53 | 1018.4 |
| 20260506205517 | 76 | 234 | 2.0 | 12.0 | 0.00 | 0.00 | 0.00 | 54 | 1018.2 |
| 20260506205014 | 75 | 238 | 5.0 | 11.0 | 0.00 | 0.00 | 0.00 | 54 | 1018.3 |
| 20260506204544 | 75 | 210 | 3.0 | 12.0 | 0.00 | 0.00 | 0.00 | 54 | 1018.2 |
| 20260506204022 | 75 | 234 | 6.0 | 12.0 | 0.00 | 0.00 | 0.00 | 54 | 1018.2 |
| 20260506203535 | 75 | 230 | 3.0 | 15.0 | 0.00 | 0.00 | 0.00 | 55 | 1018.4 |
| 20260506203105 | 75 | 251 | 4.0 | 15.0 | 0.00 | 0.00 | 0.00 | 54 | 1018.5 |
| 20260506202517 | 75 | 240 | 5.0 | 12.0 | 0.00 | 0.00 | 0.00 | 55 | 1018.5 |
| 20260506202014 | 75 | 221 | 4.0 | 14.0 | 0.00 | 0.00 | 0.00 | 55 | 1018.5 |
| 20260506201559 | 75 | 251 | 6.0 | 14.0 | 0.00 | 0.00 | 0.00 | 55 | 1018.5 |
| 20260506201014 | 75 | 242 | 5.0 | 14.0 | 0.00 | 0.00 | 0.00 | 55 | 1018.7 |
| 20260506200516 | 76 | 253 | 6.0 | 14.0 | 0.00 | 0.00 | 0.00 | 53 | 1018.7 |
| 20260506200057 | 76 | 238 | 5.0 | 14.0 | 0.00 | 0.00 | 0.00 | 54 | 1018.7 |
| 20260506195516 | 76 | 240 | 3.0 | 15.0 | 0.00 | 0.00 | 0.00 | 54 | 1018.6 |
| 20260506195015 | 76 | 196 | 6.0 | 15.0 | 0.00 | 0.00 | 0.00 | 53 | 1018.7 |
| 20260506194609 | 76 | 251 | 5.0 | 12.0 | 0.00 | 0.00 | 0.00 | 54 | 1018.6 |
| 20260506194014 | 76 | 234 | 5.0 | 15.0 | 0.00 | 0.00 | 0.00 | 53 | 1018.7 |
| 20260506193516 | 76 | 249 | 5.0 | 15.0 | 0.00 | 0.00 | 0.00 | 53 | 1018.7 |
| 20260506193057 | 76 | 244 | 3.0 | 11.0 | 0.00 | 0.00 | 0.00 | 54 | 1018.7 |
| 20260506192518 | 76 | 234 | 4.0 | 16.0 | 0.00 | 0.00 | 0.00 | 54 | 1018.7 |
| 20260506192016 | 77 | 238 | 6.0 | 16.0 | 0.00 | 0.00 | 0.00 | 53 | 1018.9 |
| 20260506191604 | 77 | 230 | 5.0 | 12.0 | 0.00 | 0.00 | 0.00 | 52 | 1018.8 |
| 20260506191017 | 77 | 252 | 5.0 | 12.0 | 0.00 | 0.00 | 0.00 | 51 | 1018.9 |
| 20260506190517 | 76 | 231 | 25.0 | 8.0 | 0.00 | 0.00 | 0.00 | 50 | 1018.8 |
| 20260506190053 | 76 | 218 | 3.0 | 9.0 | 0.00 | 0.00 | 0.00 | 51 | 1018.8 |
| 20260506185521 | 76 | 232 | 2.0 | 11.0 | 0.00 | 0.00 | 0.00 | 49 | 1018.9 |
| 20260506185016 | 76 | 188 | 4.0 | 11.0 | 0.00 | 0.00 | 0.00 | 51 | 1019.0 |
| 20260506184557 | 76 | 220 | 1.0 | 11.0 | 0.00 | 0.00 | 0.00 | 50 | 1019.2 |
| 20260506184019 | 75 | 250 | 1.0 | 11.0 | 0.00 | 0.00 | 0.00 | 51 | 1019.2 |
| 20260506183520 | 75 | 233 | 4.0 | 10.0 | 0.00 | 0.00 | 0.00 | 50 | 1019.2 |
| 20260506183056 | 75 | 230 | 3.0 | 10.0 | 0.00 | 0.00 | 0.00 | 50 | 1019.2 |
| 20260506182517 | 75 | 242 | 2.0 | 10.0 | 0.00 | 0.00 | 0.00 | 51 | 1019.3 |
| 20260506182016 | 74 | 138 | 2.0 | 10.0 | 0.00 | 0.00 | 0.00 | 51 | 1019.3 |
| 20260506181558 | 74 | 254 | 3.0 | 10.0 | 0.00 | 0.00 | 0.00 | 51 | 1019.3 |
| 20260506181019 | 74 | 240 | 3.0 | 10.0 | 0.00 | 0.00 | 0.00 | 51 | 1019.3 |
| 20260506180518 | 74 | 246 | 3.0 | 13.0 | 0.00 | 0.00 | 0.00 | 52 | 1019.4 |
| 20260506180051 | 74 | 184 | 4.0 | 13.0 | 0.00 | 0.00 | 0.00 | 51 | 1019.3 |
| 20260506175516 | 73 | 236 | 1.0 | 9.0 | 0.00 | 0.00 | 0.00 | 52 | 1019.4 |
| 20260506175016 | 73 | 249 | 3.0 | 10.0 | 0.00 | 0.00 | 0.00 | 52 | 1019.4 |
| 20260506174606 | 73 | 226 | 3.0 | 10.0 | 0.00 | 0.00 | 0.00 | 54 | 1019.5 |
| 20260506174023 | 73 | 214 | 2.0 | 9.0 | 0.00 | 0.00 | 0.00 | 53 | 1019.5 |
| 20260506173519 | 73 | 137 | 2.0 | 7.0 | 0.00 | 0.00 | 0.00 | 55 | 1019.4 |
| 20260506173127 | 72 | 245 | 2.0 | 7.0 | 0.00 | 0.00 | 0.00 | 56 | 1019.5 |
| 20260506172519 | 72 | 245 | 3.0 | 7.0 | 0.00 | 0.00 | 0.00 | 56 | 1019.5 |
| 20260506172024 | 72 | 211 | 1.0 | 6.0 | 0.00 | 0.00 | 0.00 | 57 | 1019.6 |
| 20260506171600 | 71 | 210 | 1.0 | 4.0 | 0.00 | 0.00 | 0.00 | 58 | 1019.5 |
| 20260506171017 | 71 | 210 | 0.0 | 5.0 | 0.00 | 0.00 | 0.00 | 58 | 1019.5 |
| 20260506170520 | 70 | 216 | 1.0 | 5.0 | 0.00 | 0.00 | 0.00 | 57 | 1019.5 |
| 20260506170443 | 70 | 215 | 0.0 | 8.0 | 0.00 | 0.00 | 0.00 | 59 | 1019.5 |
| 20260506165518 | 69 | 217 | 3.0 | 8.0 | 0.00 | 0.00 | 0.00 | 57 | 1019.6 |
| 20260506165020 | 69 | 215 | 1.0 | 4.0 | 0.00 | 0.00 | 0.00 | 59 | 1019.6 |
| 20260506164610 | 69 | 214 | 1.0 | 6.0 | 0.00 | 0.00 | 0.00 | 60 | 1019.6 |
| 20260506164020 | 68 | 213 | 1.0 | 6.0 | 0.00 | 0.00 | 0.00 | 63 | 1019.6 |
| 20260506163535 | 67 | 284 | 1.0 | 7.0 | 0.00 | 0.00 | 0.00 | 64 | 1019.6 |
| 20260506163109 | 67 | 18 | 1.0 | 4.0 | 0.00 | 0.00 | 0.00 | 65 | 1019.7 |
| 20260506162522 | 66 | 18 | 0.0 | 2.0 | 0.00 | 0.00 | 0.00 | 69 | 1019.7 |
| 20260506162015 | 65 | 18 | 0.0 | 2.0 | 0.00 | 0.00 | 0.00 | 71 | 1019.6 |
| 20260506161612 | 64 | 18 | 0.0 | 1.0 | 0.00 | 0.00 | 0.00 | 75 | 1019.5 |
| 20260506161016 | 63 | 18 | 0.0 | 2.0 | 0.00 | 0.00 | 0.00 | 75 | 1019.6 |
| 20260506160515 | 62 | 18 | 0.0 | 3.0 | 0.00 | 0.00 | 0.00 | 76 | 1019.6 |
| 20260506160111 | 61 | 13 | 1.0 | 3.0 | 0.00 | 0.00 | 0.00 | 77 | 1019.5 |
| 20260506155519 | 60 | 13 | 0.0 | 4.0 | 0.00 | 0.00 | 0.00 | 81 | 1019.6 |
| 20260506155017 | 59 | 13 | 1.0 | 4.0 | 0.00 | 0.00 | 0.00 | 82 | 1019.5 |
| 20260506154601 | 58 | 5 | 1.0 | 4.0 | 0.00 | 0.00 | 0.00 | 88 | 1019.5 |
| 20260506154017 | 57 | 27 | 1.0 | 4.0 | 0.00 | 0.00 | 0.00 | 90 | 1019.5 |
| 20260506153516 | 56 | 18 | 1.0 | 4.0 | 0.00 | 0.00 | 0.00 | 92 | 1019.5 |
| 20260506153100 | 55 | 45 | 1.0 | 5.0 | 0.00 | 0.00 | 0.00 | 93 | 1019.4 |
| 20260506152519 | 55 | 76 | 2.0 | 6.0 | 0.00 | 0.00 | 0.00 | 94 | 1019.4 |
| 20260506152016 | 54 | 54 | 2.0 | 6.0 | 0.00 | 0.00 | 0.00 | 95 | 1019.4 |
| 20260506151821 | 54 | 47 | 1.0 | 5.0 | 0.00 | 0.00 | 0.00 | 95 | 1019.6 |
| 20260506151015 | 53 | 47 | 2.0 | 5.0 | 0.00 | 0.00 | 0.00 | 95 | 1019.7 |
| 20260506150516 | 52 | 49 | 1.0 | 4.0 | 0.00 | 0.00 | 0.00 | 95 | 1019.7 |
| 20260506150101 | 51 | 47 | 1.0 | 4.0 | 0.00 | 0.00 | 0.00 | 95 | 1019.6 |
| 20260506145519 | 51 | 47 | 0.0 | 3.0 | 0.00 | 0.00 | 0.00 | 95 | 1019.5 |
| 20260506145017 | 50 | 46 | 0.0 | 3.0 | 0.00 | 0.00 | 0.00 | 95 | 1019.6 |
| 20260506144600 | 50 | 45 | 0.0 | 2.0 | 0.00 | 0.00 | 0.00 | 94 | 1019.5 |
| 20260506144015 | 49 | 45 | 0.0 | 4.0 | 0.00 | 0.00 | 0.00 | 94 | 1019.5 |
| 20260506143519 | 49 | 49 | 1.0 | 3.0 | 0.00 | 0.00 | 0.00 | 94 | 1019.8 |
| 20260506143053 | 48 | 49 | 0.0 | 3.0 | 0.00 | 0.00 | 0.00 | 94 | 1019.7 |
| 20260506142516 | 48 | 49 | 1.0 | 3.0 | 0.00 | 0.00 | 0.00 | 94 | 1019.6 |
| 20260506142013 | 47 | 48 | 1.0 | 3.0 | 0.00 | 0.00 | 0.00 | 94 | 1019.5 |
| 20260506141550 | 47 | 47 | 1.0 | 3.0 | 0.00 | 0.00 | 0.00 | 93 | 1019.5 |
| 20260506141019 | 46 | 47 | 1.0 | 3.0 | 0.00 | 0.00 | 0.00 | 93 | 1019.4 |
| 20260506140514 | 45 | 47 | 0.0 | 3.0 | 0.00 | 0.00 | 0.00 | 92 | 1019.5 |
| 20260506135515 | 44 | 47 | 0.0 | 0.0 | 0.00 | 0.00 | 0.00 | 90 | 1019.4 |
| 20260506135016 | 44 | 47 | 0.0 | 0.0 | 0.00 | 0.00 | 0.00 | 89 | 1019.3 |
| 20260506134545 | 44 | 47 | 0.0 | 0.0 | 0.00 | 0.00 | 0.00 | 89 | 1019.3 |
| 20260506134015 | 44 | 47 | 0.0 | 0.0 | 0.00 | 0.00 | 0.00 | 89 | 1019.2 |
| 20260506133517 | 44 | 47 | 0.0 | 0.0 | 0.00 | 0.00 | 0.00 | 88 | 1019.4 |
| 20260506133056 | 44 | 47 | 0.0 | 0.0 | 0.00 | 0.00 | 0.00 | 88 | 1019.4 |
| 20260506132517 | 44 | 47 | 0.0 | 0.0 | 0.00 | 0.00 | 0.00 | 88 | 1019.2 |
| 20260506132015 | 44 | 47 | 0.0 | 0.0 | 0.00 | 0.00 | 0.00 | 88 | 1019.1 |
| 20260506131546 | 44 | 47 | 0.0 | 0.0 | 0.00 | 0.00 | 0.00 | 88 | 1019.2 |
| 20260506131017 | 44 | 47 | 0.0 | 0.0 | 0.00 | 0.00 | 0.00 | 88 | 1019.1 |
| 20260506130514 | 44 | 47 | 0.0 | 0.0 | 0.00 | 0.00 | 0.00 | 88 | 1019.0 |
| 20260506130133 | 44 | 47 | 0.0 | 0.0 | 0.00 | 0.00 | 0.00 | 88 | 1019.1 |
| 20260506125514 | 44 | 47 | 0.0 | 0.0 | 0.00 | 0.00 | 0.00 | 89 | 1019.0 |
| 20260506125015 | 45 | 47 | 0.0 | 0.0 | 0.00 | 0.00 | 0.00 | 88 | 1018.9 |
| 20260506124542 | 45 | 47 | 0.0 | 0.0 | 0.00 | 0.00 | 0.00 | 88 | 1018.8 |
| 20260506124016 | 45 | 47 | 0.0 | 0.0 | 0.00 | 0.00 | 0.00 | 88 | 1018.8 |
| 20260506123516 | 45 | 47 | 0.0 | 0.0 | 0.00 | 0.00 | 0.00 | 88 | 1018.9 |
| 20260506123053 | 45 | 47 | 0.0 | 0.0 | 0.00 | 0.00 | 0.00 | 88 | 1018.8 |
| 20260506122517 | 45 | 47 | 0.0 | 0.0 | 0.00 | 0.00 | 0.00 | 88 | 1018.8 |
| 20260506122015 | 45 | 47 | 0.0 | 0.0 | 0.00 | 0.00 | 0.00 | 88 | 1018.8 |
| 20260506121556 | 45 | 47 | 0.0 | 0.0 | 0.00 | 0.00 | 0.00 | 88 | 1018.6 |
| 20260506121013 | 45 | 47 | 0.0 | 0.0 | 0.00 | 0.00 | 0.00 | 88 | 1018.7 |
| 20260506120515 | 45 | 47 | 0.0 | 0.0 | 0.00 | 0.00 | 0.00 | 88 | 1018.7 |
| 20260506120057 | 45 | 47 | 0.0 | 0.0 | 0.00 | 0.00 | 0.00 | 88 | 1018.7 |
| 20260506115517 | 45 | 47 | 0.0 | 0.0 | 0.00 | 0.00 | 0.00 | 88 | 1018.6 |
| 20260506115014 | 45 | 47 | 0.0 | 0.0 | 0.00 | 0.00 | 0.00 | 88 | 1018.5 |
| 20260506114551 | 46 | 47 | 0.0 | 0.0 | 0.00 | 0.00 | 0.00 | 88 | 1018.6 |
| 20260506114019 | 46 | 47 | 0.0 | 0.0 | 0.00 | 0.00 | 0.00 | 88 | 1018.5 |
| 20260506113515 | 46 | 47 | 0.0 | 0.0 | 0.00 | 0.00 | 0.00 | 88 | 1018.6 |
| 20260506113052 | 46 | 47 | 0.0 | 0.0 | 0.00 | 0.00 | 0.00 | 88 | 1018.6 |
| 20260506112518 | 46 | 47 | 0.0 | 0.0 | 0.00 | 0.00 | 0.00 | 88 | 1018.6 |
| 20260506112017 | 46 | 47 | 0.0 | 0.0 | 0.00 | 0.00 | 0.00 | 88 | 1018.6 |
| 20260506111552 | 46 | 47 | 0.0 | 0.0 | 0.00 | 0.00 | 0.00 | 88 | 1018.5 |
| 20260506111016 | 46 | 47 | 0.0 | 0.0 | 0.00 | 0.00 | 0.00 | 88 | 1018.5 |
| 20260506110518 | 46 | 47 | 0.0 | 0.0 | 0.00 | 0.00 | 0.00 | 88 | 1018.5 |
| 20260506110051 | 46 | 47 | 0.0 | 0.0 | 0.00 | 0.00 | 0.00 | 88 | 1018.5 |
| 20260506105515 | 46 | 47 | 0.0 | 0.0 | 0.00 | 0.00 | 0.00 | 88 | 1018.4 |
| 20260506105020 | 46 | 47 | 0.0 | 0.0 | 0.00 | 0.00 | 0.00 | 88 | 1018.3 |
| 20260506104559 | 46 | 47 | 0.0 | 0.0 | 0.00 | 0.00 | 0.00 | 88 | 1018.4 |
| 20260506104018 | 46 | 47 | 0.0 | 0.0 | 0.00 | 0.00 | 0.00 | 88 | 1018.2 |
| 20260506103514 | 46 | 47 | 0.0 | 0.0 | 0.00 | 0.00 | 0.00 | 87 | 1018.3 |
| 20260506103054 | 46 | 47 | 0.0 | 0.0 | 0.00 | 0.00 | 0.00 | 87 | 1018.2 |
| 20260506102514 | 46 | 47 | 0.0 | 1.0 | 0.00 | 0.00 | 0.00 | 87 | 1018.3 |
| 20260506102016 | 46 | 47 | 0.0 | 1.0 | 0.00 | 0.00 | 0.00 | 87 | 1018.3 |
| 20260506101541 | 47 | 47 | 0.0 | 0.0 | 0.00 | 0.00 | 0.00 | 87 | 1018.4 |
| 20260506101016 | 47 | 47 | 0.0 | 0.0 | 0.00 | 0.00 | 0.00 | 87 | 1018.4 |
| 20260506100516 | 47 | 47 | 0.0 | 0.0 | 0.00 | 0.00 | 0.00 | 87 | 1018.4 |
| 20260506100106 | 47 | 47 | 0.0 | 0.0 | 0.00 | 0.00 | 0.00 | 87 | 1018.4 |
| 20260506095515 | 47 | 47 | 0.0 | 0.0 | 0.00 | 0.00 | 0.00 | 87 | 1018.4 |
| 20260506095016 | 47 | 47 | 0.0 | 0.0 | 0.00 | 0.00 | 0.00 | 87 | 1018.3 |
| 20260506094552 | 47 | 47 | 0.0 | 0.0 | 0.00 | 0.00 | 0.00 | 87 | 1018.3 |
| 20260506094016 | 47 | 47 | 0.0 | 0.0 | 0.00 | 0.00 | 0.00 | 87 | 1018.3 |
| 20260506093520 | 48 | 47 | 0.0 | 0.0 | 0.00 | 0.00 | 0.00 | 87 | 1018.5 |
| 20260506093048 | 48 | 47 | 0.0 | 0.0 | 0.00 | 0.00 | 0.00 | 87 | 1018.6 |
| 20260506092514 | 48 | 47 | 0.0 | 0.0 | 0.00 | 0.00 | 0.00 | 87 | 1018.6 |
| 20260506092015 | 48 | 47 | 0.0 | 0.0 | 0.00 | 0.00 | 0.00 | 87 | 1018.6 |
| 20260506091806 | 48 | 47 | 0.0 | 0.0 | 0.00 | 0.00 | 0.00 | 87 | 1018.6 |
| 20260506091020 | 48 | 47 | 0.0 | 0.0 | 0.00 | 0.00 | 0.00 | 87 | 1018.6 |
| 20260506090521 | 49 | 47 | 0.0 | 0.0 | 0.00 | 0.00 | 0.00 | 87 | 1018.6 |
| 20260506090332 | 49 | 47 | 0.0 | 0.0 | 0.00 | 0.00 | 0.00 | 87 | 1018.5 |
| 20260506085517 | 49 | 47 | 0.0 | 0.0 | 0.00 | 0.00 | 0.00 | 87 | 1018.6 |
| 20260506085016 | 49 | 47 | 0.0 | 0.0 | 0.00 | 0.00 | 0.00 | 87 | 1018.6 |
| 20260506084556 | 49 | 47 | 0.0 | 0.0 | 0.00 | 0.00 | 0.00 | 87 | 1018.6 |
| 20260506084017 | 49 | 47 | 0.0 | 0.0 | 0.00 | 0.00 | 0.00 | 87 | 1018.7 |
| 20260506083518 | 50 | 47 | 0.0 | 0.0 | 0.00 | 0.00 | 0.00 | 86 | 1018.7 |
| 20260506083055 | 50 | 47 | 0.0 | 0.0 | 0.00 | 0.00 | 0.00 | 86 | 1018.7 |
| 20260506082516 | 50 | 47 | 0.0 | 0.0 | 0.00 | 0.00 | 0.00 | 87 | 1018.7 |
| 20260506082016 | 50 | 47 | 0.0 | 0.0 | 0.00 | 0.00 | 0.00 | 87 | 1018.7 |
| 20260506081609 | 50 | 47 | 0.0 | 0.0 | 0.00 | 0.00 | 0.00 | 87 | 1018.7 |
| 20260506081016 | 51 | 47 | 0.0 | 0.0 | 0.00 | 0.00 | 0.00 | 87 | 1018.7 |
| 20260506080517 | 51 | 47 | 0.0 | 0.0 | 0.00 | 0.00 | 0.00 | 87 | 1018.6 |
| 20260506073522 | 51 | 47 | 0.0 | 0.0 | 0.00 | 0.00 | 0.00 | 87 | 1018.7 |
| 20260506073057 | 51 | 47 | 0.0 | 0.0 | 0.00 | 0.00 | 0.00 | 87 | 1018.6 |
| 20260506072516 | 52 | 47 | 0.0 | 0.0 | 0.00 | 0.00 | 0.00 | 88 | 1018.5 |
| 20260506072018 | 52 | 47 | 0.0 | 0.0 | 0.00 | 0.00 | 0.00 | 88 | 1018.5 |
| 20260506071602 | 52 | 47 | 0.0 | 0.0 | 0.00 | 0.00 | 0.00 | 88 | 1018.4 |
| 20260506071016 | 52 | 47 | 0.0 | 0.0 | 0.00 | 0.00 | 0.00 | 88 | 1018.6 |
| 20260506070518 | 52 | 47 | 0.0 | 0.0 | 0.00 | 0.00 | 0.00 | 88 | 1018.5 |
| 20260506062516 | 51 | 253 | 0.0 | 0.0 | 0.00 | 0.00 | 0.00 | 85 | 1018.0 |
| 20260506062018 | 51 | 253 | 0.0 | 0.0 | 0.00 | 0.00 | 0.00 | 84 | 1017.8 |
| 20260506061609 | 52 | 253 | 0.0 | 0.0 | 0.00 | 0.00 | 0.00 | 84 | 1017.9 |
| 20260506061018 | 52 | 253 | 0.0 | 0.0 | 0.00 | 0.00 | 0.00 | 83 | 1017.8 |
| 20260506060516 | 52 | 253 | 0.0 | 0.0 | 0.00 | 0.00 | 0.00 | 84 | 1017.7 |
| 20260506060106 | 52 | 253 | 0.0 | 0.0 | 0.00 | 0.00 | 0.00 | 84 | 1017.7 |
| 20260506051018 | 54 | 253 | 0.0 | 0.0 | 0.00 | 0.00 | 0.00 | 83 | 1017.5 |
| 20260506050518 | 54 | 253 | 0.0 | 0.0 | 0.00 | 0.00 | 0.00 | 83 | 1017.4 |
| 20260506045016 | 55 | 253 | 0.0 | 0.0 | 0.00 | 0.00 | 0.00 | 82 | 1017.2 |
| 20260506044600 | 55 | 253 | 0.0 | 0.0 | 0.00 | 0.00 | 0.00 | 82 | 1017.3 |
| 20260506044017 | 55 | 253 | 0.0 | 0.0 | 0.00 | 0.00 | 0.00 | 82 | 1017.2 |
| 20260506043519 | 56 | 253 | 0.0 | 0.0 | 0.00 | 0.00 | 0.00 | 81 | 1017.2 |
| 20260506043310 | 56 | 253 | 0.0 | 0.0 | 0.00 | 0.00 | 0.00 | 81 | 1017.2 |
| 20260506042518 | 56 | 253 | 0.0 | 0.0 | 0.00 | 0.00 | 0.00 | 81 | 1017.0 |
| 20260506042021 | 56 | 253 | 0.0 | 0.0 | 0.00 | 0.00 | 0.00 | 81 | 1016.8 |
| 20260506041558 | 57 | 253 | 0.0 | 0.0 | 0.00 | 0.00 | 0.00 | 81 | 1017.1 |
| 20260506041021 | 57 | 253 | 0.0 | 0.0 | 0.00 | 0.00 | 0.00 | 81 | 1016.8 |
| 20260506040518 | 57 | 253 | 0.0 | 0.0 | 0.00 | 0.00 | 0.00 | 80 | 1017.0 |
| 20260506040056 | 57 | 253 | 0.0 | 0.0 | 0.00 | 0.00 | 0.00 | 80 | 1016.7 |
| 20260506035518 | 58 | 253 | 0.0 | 0.0 | 0.00 | 0.00 | 0.00 | 79 | 1016.5 |
| 20260506035017 | 58 | 253 | 0.0 | 0.0 | 0.00 | 0.00 | 0.00 | 78 | 1016.4 |
| 20260506034618 | 58 | 253 | 0.0 | 0.0 | 0.00 | 0.00 | 0.00 | 78 | 1016.1 |
| 20260506034021 | 59 | 253 | 0.0 | 0.0 | 0.00 | 0.00 | 0.00 | 79 | 1016.0 |
| 20260506033517 | 59 | 253 | 0.0 | 0.0 | 0.00 | 0.00 | 0.00 | 78 | 1016.0 |
| 20260506033056 | 59 | 253 | 0.0 | 0.0 | 0.00 | 0.00 | 0.00 | 78 | 1016.0 |
| 20260506032519 | 60 | 253 | 0.0 | 0.0 | 0.00 | 0.00 | 0.00 | 78 | 1015.9 |
| 20260506032021 | 60 | 253 | 0.0 | 0.0 | 0.00 | 0.00 | 0.00 | 77 | 1015.8 |
| 20260506031604 | 60 | 253 | 0.0 | 0.0 | 0.00 | 0.00 | 0.00 | 77 | 1015.7 |
| 20260506031016 | 61 | 253 | 0.0 | 0.0 | 0.00 | 0.00 | 0.00 | 76 | 1015.8 |
| 20260506030516 | 61 | 253 | 0.0 | 0.0 | 0.00 | 0.00 | 0.00 | 76 | 1015.7 |